User: anonymous   Login
Location: Dompnac
(44.5644°N, 4.1026°E)
Time: 11:42:16
(UTC+00:00)
Language:

Iridium 4 Rocket - Orbit

View from above orbital plane
View from above orbital plane
View from above satellite
View from above satellite

Ground track
Ground track

The orbit data is extracted from the following two-line orbital elements,

1 24797U 97020F   21163.08004892  .00000115  00000-0  18359-4 0  9998
2 24797  86.8981 180.1405 0226252 141.7978 278.5506 14.44251173268052
Epoch (UTC): 12 June 2021 01:55:16
Eccentricity: 0.0226252
inclination: 86.8981°
perigee height: 583 km
apogee height: 905 km
right ascension of ascending node: 180.1405°
argument of perigee: 141.7978°
revolutions per day: 14.44251173
mean anomaly at epoch: 278.5506°
orbit number at epoch: 26805

The dashed part of the orbit path shows where the satellite is in the earth's shadow,  

DLR